sat.trackr.live / text

‹ back to catalog

STARLINK-2516

NORAD 48283 · 2021-036H

PAYLOAD ACTIVE UNKNOWN

§ Identity

Operator
Country
US
Launch date
2021-04-29
Launch site
AFETR
Launch vehicle
Mass (kg)
RCS (m²)

Purposes: comms

External: N2YO · Heavens-Above · Gunter

§ Orbital elements

Epoch: 2026-05-25T03:13:30.392256Z

Period
94.01 min
Inclination
53.1595°
Eccentricity
0.0001411
Mean motion
15.31695015 rev/d
Perigee alt
469.8 km
Apogee alt
471.7 km
Semi-major
6,848.9 km
B*
6.8987e-6
RAAN
79.8259°
Arg perigee
90.7697°
Mean anomaly
269.3466°
Rev number
28,012

§ Raw data

STARLINK-25161 48283U 21036H   26145.13437954 -.00000151  00000+0  68987-5 0  99912 48283  53.1595  79.8259 0001411  90.7697 269.3466 15.31695015280125

JSON: /api/v1/satellites/48283 · /tle

For live sub-satellite position, see the globe view (requires WebGL).

§ Visibility from observer

Set your observer location to see the next 7 days of passes ≥ 10°. The values pass through the URL so the page stays shareable.

No JS? Fill the form by hand. The geolocation button needs JavaScript.